| time (UTC) | temp F | wind direction | speed knots | gust knots | rain 1hr in | rain 24hr in | rain mn in | humidity % | barometer mb |
| 20260504090131 | 74 | 202 | 0.0 | 0.0 | 0.00 | 0.00 | 0.00 | 33 | 998.7 |
| 20260504081628 | 73 | 180 | 0.0 | 0.9 | 0.00 | 0.00 | 0.00 | 34 | 998.9 |
| 20260504081128 | 72 | 112 | 0.0 | 0.9 | 0.00 | 0.00 | 0.00 | 34 | 998.8 |
| 20260504080627 | 72 | 180 | 0.0 | 0.0 | 0.00 | 0.00 | 0.00 | 34 | 998.9 |
| 20260504080128 | 72 | 90 | 0.0 | 0.0 | 0.00 | 0.00 | 0.00 | 34 | 998.8 |
| 20260504070124 | 68 | 135 | 0.0 | 0.0 | 0.00 | 0.00 | 0.00 | 36 | 999.0 |
| 20260504060125 | 72 | 135 | 0.0 | 0.0 | 0.00 | 0.00 | 0.00 | 33 | 999.0 |
| 20260504060120 | 72 | 135 | 0.0 | 0.0 | 0.00 | 0.00 | 0.00 | 33 | 999.0 |
| 20260504050617 | 69 | 112 | 0.0 | 0.0 | 0.00 | 0.00 | 0.00 | 36 | 999.1 |
| 20260504050117 | 69 | 157 | 0.0 | 2.6 | 0.00 | 0.00 | 0.00 | 36 | 999.1 |
| 20260504045616 | 69 | 180 | 0.0 | 0.0 | 0.00 | 0.00 | 0.00 | 36 | 999.1 |
| 20260504045116 | 69 | 112 | 0.0 | 0.0 | 0.00 | 0.00 | 0.00 | 36 | 999.1 |
| 20260504044616 | 68 | 135 | 0.0 | 0.0 | 0.00 | 0.00 | 0.00 | 37 | 999.0 |
| 20260504044115 | 68 | 157 | 0.0 | 0.0 | 0.00 | 0.00 | 0.00 | 37 | 998.9 |
| 20260504043615 | 68 | 135 | 0.0 | 0.0 | 0.00 | 0.00 | 0.00 | 37 | 999.1 |
| 20260504043202 | 67 | 90 | 0.0 | 0.0 | 0.00 | 0.00 | 0.00 | 38 | 999.0 |
| 20260504043115 | 67 | 90 | 0.0 | 0.0 | 0.00 | 0.00 | 0.00 | 38 | 998.8 |
| 20260504042742 | 67 | 90 | 0.0 | 0.0 | 0.00 | 0.00 | 0.00 | 38 | 999.0 |
| 20260504042740 | 66 | 112 | 0.0 | 0.0 | 0.00 | 0.00 | 0.00 | 40 | 999.0 |
| 20260504042615 | 67 | 90 | 0.0 | 0.0 | 0.00 | 0.00 | 0.00 | 38 | 999.0 |
| 20260504042114 | 67 | 90 | 0.0 | 0.0 | 0.00 | 0.00 | 0.00 | 38 | 999.0 |
| 20260504041614 | 66 | 112 | 0.0 | 0.0 | 0.00 | 0.00 | 0.00 | 40 | 999.0 |
| 20260504041115 | 65 | 90 | 0.0 | 0.0 | 0.00 | 0.00 | 0.00 | 40 | 999.1 |
| 20260504040613 | 65 | 90 | 0.0 | 0.0 | 0.00 | 0.00 | 0.00 | 41 | 998.8 |
| 20260504040113 | 64 | 112 | 0.0 | 2.6 | 0.00 | 0.00 | 0.00 | 41 | 999.0 |
| 20260504035613 | 64 | 112 | 2.6 | 2.6 | 0.00 | 0.00 | 0.00 | 42 | 999.1 |
| 20260504035113 | 63 | 135 | 0.0 | 0.0 | 0.00 | 0.00 | 0.00 | 43 | 998.9 |
| 20260504034612 | 61 | 135 | 0.0 | 0.0 | 0.00 | 0.00 | 0.00 | 45 | 998.9 |
| 20260504034112 | 60 | 135 | 0.0 | 0.0 | 0.00 | 0.00 | 0.00 | 46 | 999.0 |
| 20260504033612 | 58 | 135 | 0.0 | 0.0 | 0.00 | 0.00 | 0.00 | 47 | 998.9 |
| 20260504033111 | 57 | 135 | 0.0 | 0.0 | 0.00 | 0.00 | 0.00 | 48 | 999.0 |
| 20260504032612 | 57 | 135 | 0.0 | 0.0 | 0.00 | 0.00 | 0.00 | 49 | 999.0 |
| 20260504032111 | 57 | 135 | 0.0 | 0.0 | 0.00 | 0.00 | 0.00 | 49 | 999.0 |
| 20260504031617 | 5 | 90 | 0.0 | 0.0 | 0.00 | 0.00 | 0.00 | 49 | 998.9 |
| 20260504031611 | 56 | 90 | 0.0 | 0.0 | 0.00 | 0.00 | 0.00 | 49 | 998.9 |
| 20260504031111 | 56 | 90 | 0.0 | 0.0 | 0.00 | 0.00 | 0.00 | 50 | 999.0 |
| 20260504030610 | 56 | 90 | 0.0 | 0.0 | 0.00 | 0.00 | 0.00 | 50 | 999.0 |
| 20260504030110 | 56 | 90 | 0.0 | 0.0 | 0.00 | 0.00 | 0.00 | 50 | 999.0 |
| 20260504025609 | 56 | 90 | 0.0 | 0.0 | 0.00 | 0.00 | 0.00 | 50 | 999.1 |
| 20260504025109 | 56 | 90 | 0.0 | 0.0 | 0.00 | 0.00 | 0.00 | 50 | 999.1 |
| 20260504024609 | 56 | 90 | 0.0 | 0.0 | 0.00 | 0.00 | 0.00 | 50 | 999.1 |
| 20260504024108 | 56 | 90 | 0.0 | 0.0 | 0.00 | 0.00 | 0.00 | 51 | 999.0 |
| 20260504023608 | 55 | 90 | 0.0 | 0.0 | 0.00 | 0.00 | 0.00 | 51 | 999.0 |
| 20260504023108 | 55 | 90 | 0.0 | 0.0 | 0.00 | 0.00 | 0.00 | 51 | 999.0 |
| 20260504022608 | 55 | 90 | 0.0 | 0.0 | 0.00 | 0.00 | 0.00 | 51 | 999.0 |
| 20260504022107 | 55 | 90 | 0.0 | 0.0 | 0.00 | 0.00 | 0.00 | 51 | 999.1 |
| 20260504021850 | 55 | 67 | 0.0 | 0.0 | 0.00 | 0.00 | 0.00 | 52 | 999.1 |
| 20260504021607 | 55 | 67 | 0.0 | 0.0 | 0.00 | 0.00 | 0.00 | 52 | 999.1 |
| 20260504021107 | 55 | 67 | 0.0 | 0.0 | 0.00 | 0.00 | 0.00 | 52 | 999.2 |
| 20260504020606 | 55 | 67 | 0.0 | 0.0 | 0.00 | 0.00 | 0.00 | 53 | 999.0 |
| 20260504020106 | 55 | 67 | 0.0 | 0.0 | 0.00 | 0.00 | 0.00 | 53 | 999.1 |
| 20260504015606 | 55 | 67 | 0.0 | 0.0 | 0.00 | 0.00 | 0.00 | 54 | 999.1 |
| 20260504015106 | 54 | 67 | 0.0 | 0.0 | 0.00 | 0.00 | 0.00 | 54 | 999.1 |
| 20260504014606 | 54 | 112 | 0.0 | 0.0 | 0.00 | 0.00 | 0.00 | 54 | 999.1 |
| 20260504014105 | 54 | 112 | 0.0 | 0.0 | 0.00 | 0.00 | 0.00 | 54 | 999.1 |
| 20260504013742 | 54 | 112 | 0.0 | 0.0 | 0.00 | 0.00 | 0.00 | 53 | 999.1 |
| 20260504013605 | 54 | 112 | 0.0 | 0.0 | 0.00 | 0.00 | 0.00 | 53 | 999.1 |
| 20260504013104 | 54 | 112 | 0.0 | 0.0 | 0.00 | 0.00 | 0.00 | 53 | 999.1 |
| 20260504012604 | 54 | 112 | 0.0 | 0.0 | 0.00 | 0.00 | 0.00 | 53 | 999.1 |
| 20260504012104 | 55 | 112 | 0.0 | 0.0 | 0.00 | 0.00 | 0.00 | 52 | 999.1 |
| 20260504011604 | 55 | 112 | 0.0 | 0.0 | 0.00 | 0.00 | 0.00 | 52 | 999.2 |
| 20260504011145 | 55 | 112 | 0.0 | 0.0 | 0.00 | 0.00 | 0.00 | 52 | 999.2 |
| 20260504011104 | 55 | 112 | 0.0 | 0.0 | 0.00 | 0.00 | 0.00 | 52 | 999.2 |
| 20260504010603 | 55 | 112 | 0.0 | 0.0 | 0.00 | 0.00 | 0.00 | 52 | 999.2 |
| 20260504005602 | 55 | 112 | 0.0 | 0.0 | 0.00 | 0.00 | 0.00 | 52 | 999.1 |
| 20260504005102 | 55 | 112 | 0.0 | 0.0 | 0.00 | 0.00 | 0.00 | 51 | 999.2 |
| 20260504004602 | 56 | 112 | 0.0 | 0.0 | 0.00 | 0.00 | 0.00 | 51 | 999.1 |
| 20260504004101 | 56 | 112 | 0.0 | 0.0 | 0.00 | 0.00 | 0.00 | 51 | 999.1 |
| 20260504001052 | 57 | 112 | 0.0 | 0.0 | 0.00 | 0.00 | 0.00 | 50 | 999.0 |
| 20260504000551 | 57 | 112 | 0.0 | 0.0 | 0.00 | 0.00 | 0.00 | 49 | 999.0 |
| 20260504000051 | 57 | 112 | 0.0 | 0.0 | 0.00 | 0.00 | 0.00 | 49 | 999.0 |
| 20260503235551 | 57 | 112 | 0.0 | 0.0 | 0.00 | 0.00 | 0.00 | 48 | 999.1 |
| 20260503235051 | 57 | 112 | 0.0 | 0.0 | 0.00 | 0.00 | 0.00 | 48 | 999.0 |
| 20260503234550 | 57 | 112 | 0.0 | 0.0 | 0.00 | 0.00 | 0.00 | 47 | 999.1 |
| 20260503234050 | 58 | 112 | 0.0 | 0.0 | 0.00 | 0.00 | 0.00 | 47 | 999.2 |
| 20260503233556 | 58 | 112 | 0.0 | 0.0 | 0.00 | 0.00 | 0.00 | 47 | 999.2 |
| 20260503233550 | 58 | 112 | 0.0 | 0.0 | 0.00 | 0.00 | 0.00 | 47 | 999.2 |
| 20260503233049 | 58 | 112 | 0.0 | 0.0 | 0.00 | 0.00 | 0.00 | 47 | 999.2 |
| 20260503232549 | 58 | 112 | 0.0 | 0.0 | 0.00 | 0.00 | 0.00 | 48 | 999.3 |
| 20260503232049 | 58 | 112 | 0.0 | 0.0 | 0.00 | 0.00 | 0.00 | 47 | 999.2 |
| 20260503231548 | 58 | 112 | 0.0 | 0.0 | 0.00 | 0.00 | 0.00 | 47 | 999.3 |
| 20260503231048 | 58 | 112 | 0.0 | 0.0 | 0.00 | 0.00 | 0.00 | 47 | 999.3 |
| 20260503230548 | 58 | 112 | 0.0 | 0.0 | 0.00 | 0.00 | 0.00 | 47 | 999.4 |
| 20260503230048 | 58 | 112 | 0.0 | 0.0 | 0.00 | 0.00 | 0.00 | 46 | 999.4 |
| 20260503225547 | 58 | 112 | 0.0 | 0.0 | 0.00 | 0.00 | 0.00 | 46 | 999.2 |
| 20260503225047 | 58 | 112 | 0.0 | 0.0 | 0.00 | 0.00 | 0.00 | 45 | 999.3 |
| 20260503224547 | 59 | 112 | 0.0 | 0.0 | 0.00 | 0.00 | 0.00 | 45 | 999.2 |
| 20260503224046 | 59 | 112 | 0.0 | 0.0 | 0.00 | 0.00 | 0.00 | 44 | 999.2 |
| 20260503223546 | 60 | 112 | 0.0 | 0.0 | 0.00 | 0.00 | 0.00 | 44 | 999.3 |
| 20260503223046 | 60 | 112 | 0.0 | 0.0 | 0.00 | 0.00 | 0.00 | 44 | 999.2 |
| 20260503222546 | 60 | 112 | 0.0 | 0.0 | 0.00 | 0.00 | 0.00 | 44 | 999.4 |
| 20260503222046 | 60 | 112 | 0.0 | 0.0 | 0.00 | 0.00 | 0.00 | 43 | 999.5 |
| 20260503221545 | 61 | 112 | 0.0 | 0.0 | 0.00 | 0.00 | 0.00 | 43 | 999.4 |
| 20260503221045 | 61 | 112 | 0.0 | 0.0 | 0.00 | 0.00 | 0.00 | 43 | 999.5 |
| 20260503220544 | 61 | 112 | 0.0 | 0.0 | 0.00 | 0.00 | 0.00 | 43 | 999.4 |
| 20260503220044 | 61 | 112 | 0.0 | 0.0 | 0.00 | 0.00 | 0.00 | 43 | 999.5 |
| 20260503215544 | 61 | 112 | 0.0 | 0.0 | 0.00 | 0.00 | 0.00 | 42 | 999.4 |
| 20260503215044 | 61 | 112 | 0.0 | 0.0 | 0.00 | 0.00 | 0.00 | 42 | 999.5 |
| 20260503214543 | 62 | 112 | 0.0 | 0.0 | 0.00 | 0.00 | 0.00 | 42 | 999.4 |
| 20260503214043 | 62 | 112 | 0.0 | 0.0 | 0.00 | 0.00 | 0.00 | 41 | 999.5 |
| 20260503213543 | 62 | 112 | 0.0 | 0.0 | 0.00 | 0.00 | 0.00 | 41 | 999.4 |
| 20260503213042 | 62 | 112 | 0.0 | 0.0 | 0.00 | 0.00 | 0.00 | 41 | 999.3 |
| 20260503212542 | 62 | 112 | 0.0 | 0.0 | 0.00 | 0.00 | 0.00 | 40 | 999.3 |
| 20260503212042 | 63 | 112 | 0.0 | 0.0 | 0.00 | 0.00 | 0.00 | 40 | 999.3 |
| 20260503211541 | 63 | 112 | 0.0 | 0.0 | 0.00 | 0.00 | 0.00 | 40 | 999.3 |
| 20260503211041 | 63 | 135 | 0.0 | 0.0 | 0.00 | 0.00 | 0.00 | 39 | 999.4 |
| 20260503210541 | 63 | 135 | 0.0 | 0.0 | 0.00 | 0.00 | 0.00 | 39 | 999.4 |
| 20260503210041 | 64 | 135 | 0.0 | 0.0 | 0.00 | 0.00 | 0.00 | 39 | 999.3 |
| 20260503205540 | 64 | 135 | 0.0 | 0.0 | 0.00 | 0.00 | 0.00 | 38 | 999.5 |
| 20260503205040 | 64 | 135 | 0.0 | 0.0 | 0.00 | 0.00 | 0.00 | 38 | 999.7 |
| 20260503204540 | 64 | 135 | 0.0 | 0.0 | 0.00 | 0.00 | 0.00 | 38 | 999.6 |
| 20260503204039 | 64 | 135 | 0.0 | 0.0 | 0.00 | 0.00 | 0.00 | 38 | 999.6 |
| 20260503203539 | 64 | 135 | 0.0 | 0.0 | 0.00 | 0.00 | 0.00 | 37 | 999.5 |
| 20260503203039 | 65 | 135 | 0.0 | 0.0 | 0.00 | 0.00 | 0.00 | 37 | 999.4 |
| 20260503202539 | 65 | 135 | 0.0 | 0.0 | 0.00 | 0.00 | 0.00 | 37 | 999.4 |
| 20260503202038 | 65 | 135 | 0.0 | 0.0 | 0.00 | 0.00 | 0.00 | 37 | 999.4 |
| 20260503201538 | 65 | 135 | 0.0 | 0.0 | 0.00 | 0.00 | 0.00 | 36 | 999.4 |
| 20260503201038 | 66 | 135 | 0.0 | 0.0 | 0.00 | 0.00 | 0.00 | 36 | 999.4 |
| 20260503200537 | 66 | 135 | 0.0 | 0.0 | 0.00 | 0.00 | 0.00 | 35 | 999.4 |
| 20260503200037 | 66 | 180 | 0.0 | 0.0 | 0.00 | 0.00 | 0.00 | 35 | 999.4 |
| 20260503195537 | 66 | 180 | 0.0 | 0.0 | 0.00 | 0.00 | 0.00 | 34 | 999.2 |
| 20260503195036 | 66 | 180 | 0.0 | 0.0 | 0.00 | 0.00 | 0.00 | 34 | 999.3 |
| 20260503194536 | 66 | 180 | 0.0 | 0.0 | 0.00 | 0.00 | 0.00 | 34 | 999.2 |
| 20260503194036 | 67 | 180 | 0.0 | 0.0 | 0.00 | 0.00 | 0.00 | 34 | 999.4 |
| 20260503193536 | 67 | 180 | 0.0 | 0.0 | 0.00 | 0.00 | 0.00 | 33 | 999.4 |
| 20260503193035 | 67 | 180 | 0.0 | 0.0 | 0.00 | 0.00 | 0.00 | 33 | 999.3 |
| 20260503192535 | 68 | 180 | 0.0 | 0.0 | 0.00 | 0.00 | 0.00 | 32 | 999.3 |
| 20260503192035 | 68 | 180 | 0.0 | 0.0 | 0.00 | 0.00 | 0.00 | 32 | 999.3 |
| 20260503191534 | 68 | 180 | 0.0 | 0.0 | 0.00 | 0.00 | 0.00 | 32 | 999.3 |
| 20260503191034 | 68 | 180 | 0.0 | 0.0 | 0.00 | 0.00 | 0.00 | 32 | 999.3 |
| 20260503190534 | 68 | 180 | 0.0 | 0.0 | 0.00 | 0.00 | 0.00 | 32 | 999.4 |
| 20260503190034 | 68 | 180 | 0.0 | 0.0 | 0.00 | 0.00 | 0.00 | 32 | 999.5 |
| 20260503185533 | 68 | 180 | 0.0 | 0.0 | 0.00 | 0.00 | 0.00 | 32 | 999.4 |
| 20260503185033 | 69 | 180 | 0.0 | 0.0 | 0.00 | 0.00 | 0.00 | 31 | 999.4 |
| 20260503184533 | 69 | 180 | 0.0 | 0.0 | 0.00 | 0.00 | 0.00 | 30 | 999.3 |
| 20260503184032 | 69 | 180 | 0.0 | 0.0 | 0.00 | 0.00 | 0.00 | 30 | 999.2 |
| 20260503183532 | 70 | 180 | 0.0 | 0.0 | 0.00 | 0.00 | 0.00 | 30 | 999.3 |
| 20260503183032 | 70 | 180 | 0.0 | 0.0 | 0.00 | 0.00 | 0.00 | 30 | 999.2 |
| 20260503182531 | 70 | 180 | 0.0 | 0.0 | 0.00 | 0.00 | 0.00 | 29 | 999.2 |
| 20260503182035 | 71 | 180 | 0.0 | 0.0 | 0.00 | 0.00 | 0.00 | 29 | 999.2 |
| 20260503181531 | 71 | 180 | 0.0 | 0.0 | 0.00 | 0.00 | 0.00 | 29 | 999.1 |
| 20260503181031 | 72 | 180 | 0.0 | 0.0 | 0.00 | 0.00 | 0.00 | 28 | 999.1 |
| 20260503180530 | 73 | 180 | 0.0 | 0.0 | 0.00 | 0.00 | 0.00 | 28 | 999.0 |
| 20260503180030 | 73 | 180 | 0.0 | 0.0 | 0.00 | 0.00 | 0.00 | 28 | 999.0 |
| 20260503175530 | 74 | 180 | 0.0 | 0.0 | 0.00 | 0.00 | 0.00 | 26 | 999.0 |
| 20260503175029 | 75 | 180 | 0.0 | 0.0 | 0.00 | 0.00 | 0.00 | 27 | 999.0 |
| 20260503174529 | 75 | 180 | 0.0 | 0.0 | 0.00 | 0.00 | 0.00 | 25 | 998.9 |
| 20260503174029 | 76 | 180 | 0.0 | 0.0 | 0.00 | 0.00 | 0.00 | 25 | 998.9 |
| 20260503173529 | 77 | 180 | 0.0 | 0.0 | 0.00 | 0.00 | 0.00 | 24 | 998.9 |
| 20260503173028 | 79 | 180 | 0.0 | 0.0 | 0.00 | 0.00 | 0.00 | 23 | 998.8 |
| 20260503172528 | 84 | 180 | 0.0 | 0.0 | 0.00 | 0.00 | 0.00 | 22 | 998.8 |
| 20260503172029 | 86 | 180 | 0.0 | 0.0 | 0.00 | 0.00 | 0.00 | 21 | 998.9 |
| 20260503171527 | 86 | 180 | 0.0 | 0.0 | 0.00 | 0.00 | 0.00 | 20 | 998.7 |
| 20260503171027 | 87 | 202 | 0.0 | 0.0 | 0.00 | 0.00 | 0.00 | 20 | 998.9 |
| 20260503170527 | 87 | 202 | 0.0 | 0.0 | 0.00 | 0.00 | 0.00 | 20 | 999.1 |
| 20260503150520 | 80 | 45 | 0.9 | 0.9 | 0.00 | 0.00 | 0.00 | 23 | 999.5 |
| 20260503131013 | 79 | 157 | 0.0 | 0.0 | 0.00 | 0.00 | 0.00 | 22 | 1000.6 |
| 20260503130513 | 79 | 180 | 0.0 | 0.0 | 0.00 | 0.00 | 0.00 | 23 | 1000.7 |
| 20260503120133 | 78 | 90 | 0.0 | 0.0 | 0.00 | 0.00 | 0.00 | 24 | 1001.2 |
| 20260503110630 | 77 | 22 | 0.0 | 0.0 | 0.00 | 0.00 | 0.00 | 25 | 1001.9 |
| 20260503110129 | 77 | 202 | 0.0 | 4.3 | 0.00 | 0.00 | 0.00 | 25 | 1002.1 |
| 20260503100126 | 75 | 202 | 1.7 | 2.6 | 0.00 | 0.00 | 0.00 | 27 | 1002.5 |